Погода в Пеци под Снежкой

Чехия     50°41′51″N   15°44′10″E
темп.,
°C
ветер,
м/с
пор.,
м/с
влажн.,
%
обл.,
%
осадки,
мм/ч
давл.,
гПа
погр.,
м
27 сентября, пн
пн2723:00+13ю118122 0.0 101918
02:00+13ююз118499 0.0 101917
05:00+12юз118658 0.0 101812
08:00+14ююз1182100 0.0 101820
11:00+18ю1166100 0.0 1018723
14:00+20ю1259100 0.1 10171303
17:00+18юз017195 0.6 1017310
20:00+13зюз119241 1.5 101911
28 сентября, вт
вт2823:00+13зюз2294100 0.9 102035
02:00+13сз2394100 1.4 102076
05:00+13сз2395100 0.4 1021104
08:00+12ссз139877 1.8 1022121
11:00+14ссз248759 0.1 1023556
14:00+15с237979 0.3 1023770
17:00+14ссв2386100 0.2 1023350
20:00+12ссв2298100 0.4 102374
29 сентября, ср
ср2923:00+12св1198100 0.1 102334
02:00+11всв1197100 0.1 102217
05:00+10вюв1295100 0.0 102025
08:00+10юв2282100 0.0 102043
11:00+14ю3568100 0.0 1019521
14:00+15ююз3568100 0.0 1018857
17:00+14юз2372100 0.0 1019579
20:00+11з2490100 0.4 1021287
30 сентября, чт
чт3023:00+9зюз2289100 0.1 102336
02:00+10зюз228696 0.1 102460
05:00+7зюз2293100 0.1 102534
08:00+6зюз238787 0.1 1027160
11:00+10зюз25491 0.0 10281195
14:00+11зюз344340 0.0 10271453
17:00+10зюз23454 0.0 10271384
20:00+5юз11630 0.0 102912
1 октября, пт
пт123:00+4ююз11617 0.0 102912
02:00+4ююз116373 0.0 102917
05:00+4ююз2264100 0.0 102821
08:00+5ююз226181 0.0 102750
11:00+11ююз244251 0.0 1025543
14:00+13ююз354313 0.0 1023786
17:00+13ю375461 0.0 1021870
20:00+8ююз347490 0.0 102168